Time,TemperatureF,DewpointF,PressureIn,WindDirection,WindDirectionDegrees,WindSpeedMPH,WindSpeedGustMPH,Humidity,HourlyPrecipIn,Conditions,Clouds,dailyrainin,SoftwareType,DateUTC
2013-03-07 00:05:00,43.0,26.1,30.18,North,354,0.0,0.0,51,0.00,,,0.00,WSDL version 420,2013-03-07 06:05:00,
2013-03-07 00:10:00,42.9,26.0,30.18,WSW,254,0.0,0.9,51,0.00,,,0.00,WSDL version 420,2013-03-07 06:10:00,
2013-03-07 00:15:00,42.8,25.9,30.21,North,354,0.0,0.9,51,0.00,,,0.00,WSDL version 420,2013-03-07 06:15:00,
2013-03-07 00:20:00,42.7,25.9,30.21,NNW,343,0.0,0.9,52,0.00,,,0.00,WSDL version 420,2013-03-07 06:20:00,
2013-03-07 00:25:00,42.5,26.1,30.21,NNW,332,0.0,0.9,52,0.00,,,0.00,WSDL version 420,2013-03-07 06:25:00,
2013-03-07 00:30:00,42.4,26.0,30.18,WNW,296,0.0,0.0,52,-99.99,,,-99.99,WSDL version 420,2013-03-07 06:30:00,
2013-03-07 00:35:00,42.3,25.9,30.18,North,349,0.0,0.0,52,-99.99,,,-99.99,WSDL version 420,2013-03-07 06:35:00,
2013-03-07 00:39:00,42.2,25.8,30.18,NNW,341,0.0,0.0,52,0.00,,,0.00,WSDL version 420,2013-03-07 06:39:00,
2013-03-07 00:44:00,42.1,26.1,30.21,North,355,0.0,0.0,53,0.00,,,0.00,WSDL version 420,2013-03-07 06:44:00,
2013-03-07 00:49:00,42.1,26.2,30.21,NW,315,0.0,1.1,53,0.00,,,0.00,WSDL version 420,2013-03-07 06:49:00,
2013-03-07 00:54:00,41.9,26.0,30.21,North,354,0.0,1.1,53,0.00,,,0.00,WSDL version 420,2013-03-07 06:54:00,
2013-03-07 00:59:00,41.9,26.0,30.21,North,360,0.0,0.0,53,0.00,,,0.00,WSDL version 420,2013-03-07 06:59:00,
2013-03-07 01:04:00,41.9,26.5,30.21,ESE,116,0.0,1.6,54,0.00,,,0.00,WSDL version 420,2013-03-07 07:04:00,
2013-03-07 01:10:00,42.0,26.6,30.21,WNW,293,0.0,4.3,54,0.00,,,0.00,WSDL version 420,2013-03-07 07:10:00,
2013-03-07 01:15:00,42.1,26.6,30.21,NNE,25,0.0,4.3,54,0.00,,,0.00,WSDL version 420,2013-03-07 07:15:00,
2013-03-07 01:20:00,42.1,26.8,30.21,NNW,332,0.0,3.8,54,-99.99,,,-99.99,WSDL version 420,2013-03-07 07:20:00,
2013-03-07 01:25:00,42.1,26.8,30.21,North,6,0.0,3.8,54,0.00,,,0.00,WSDL version 420,2013-03-07 07:25:00,
2013-03-07 01:31:00,42.1,27.1,30.21,North,354,0.5,3.1,55,0.00,,,0.00,WSDL version 420,2013-03-07 07:31:00,
2013-03-07 01:39:00,42.1,27.1,30.21,North,354,0.0,2.5,55,0.00,,,0.00,WSDL version 420,2013-03-07 07:39:00,
2013-03-07 01:45:00,42.0,27.0,30.21,NNW,334,0.0,2.7,55,0.00,,,0.00,WSDL version 420,2013-03-07 07:45:00,
2013-03-07 01:51:00,41.9,26.9,30.21,North,351,0.0,3.6,55,0.00,,,0.00,WSDL version 420,2013-03-07 07:51:00,
2013-03-07 01:56:00,41.9,26.9,30.21,NNW,333,0.0,3.6,55,0.00,,,0.00,WSDL version 420,2013-03-07 07:56:00,
2013-03-07 02:01:00,41.7,26.8,30.21,NE,51,0.3,2.5,55,0.00,,,0.00,WSDL version 420,2013-03-07 08:01:00,
2013-03-07 02:06:00,41.7,26.9,30.21,NW,315,0.0,2.2,55,0.00,,,0.00,WSDL version 420,2013-03-07 08:06:00,
2013-03-07 02:11:00,41.5,26.6,30.21,NW,315,0.5,2.7,55,0.00,,,0.00,WSDL version 420,2013-03-07 08:11:00,
2013-03-07 02:17:00,41.4,26.5,30.21,NNW,329,0.0,2.7,55,0.00,,,0.00,WSDL version 420,2013-03-07 08:17:00,
2013-03-07 02:22:00,41.2,26.7,30.21,North,3,1.0,3.4,56,0.00,,,0.00,WSDL version 420,2013-03-07 08:22:00,
2013-03-07 02:27:00,41.2,26.5,30.21,North,4,0.0,3.4,56,0.00,,,0.00,WSDL version 420,2013-03-07 08:27:00,
2013-03-07 02:32:00,41.0,26.5,30.21,North,349,0.0,1.3,56,0.00,,,0.00,WSDL version 420,2013-03-07 08:32:00,
2013-03-07 02:38:00,40.8,26.3,30.21,NNW,338,0.0,0.0,56,0.00,,,0.00,WSDL version 420,2013-03-07 08:38:00,
2013-03-07 02:43:00,40.7,26.3,30.21,NW,326,0.0,1.6,56,0.00,,,0.00,WSDL version 420,2013-03-07 08:43:00,
2013-03-07 02:49:00,40.6,26.5,30.21,NNW,341,0.6,2.9,57,0.00,,,0.00,WSDL version 420,2013-03-07 08:49:00,
2013-03-07 02:54:00,40.6,26.6,30.21,NNE,16,0.0,2.9,57,0.00,,,0.00,WSDL version 420,2013-03-07 08:54:00,
2013-03-07 02:59:00,40.6,26.6,30.21,NNW,347,0.0,1.1,57,0.00,,,0.00,WSDL version 420,2013-03-07 08:59:00,
2013-03-07 03:08:00,40.5,26.4,30.21,NNE,29,1.2,4.5,57,0.00,,,0.00,WSDL version 420,2013-03-07 09:08:00,
2013-03-07 03:13:00,40.5,26.4,30.21,NNE,30,0.0,4.5,57,0.00,,,0.00,WSDL version 420,2013-03-07 09:13:00,
2013-03-07 03:19:00,40.5,26.4,30.21,NNE,19,0.4,2.9,57,0.00,,,0.00,WSDL version 420,2013-03-07 09:19:00,
2013-03-07 03:24:00,40.5,26.7,30.21,NW,321,1.5,3.4,58,0.00,,,0.00,WSDL version 420,2013-03-07 09:24:00,
2013-03-07 03:29:00,40.5,26.8,30.18,North,3,1.3,3.6,58,0.00,,,0.00,WSDL version 420,2013-03-07 09:29:00,
2013-03-07 03:34:00,40.5,26.6,30.18,NNW,338,0.9,3.6,57,0.00,,,0.00,WSDL version 420,2013-03-07 09:34:00,
2013-03-07 03:39:00,40.5,26.6,30.18,NE,48,0.6,3.1,58,0.00,,,0.00,WSDL version 420,2013-03-07 09:39:00,
2013-03-07 03:44:00,40.4,26.7,30.21,NNW,330,0.8,3.1,58,0.00,,,0.00,WSDL version 420,2013-03-07 09:44:00,
2013-03-07 03:49:00,40.3,26.4,30.21,NW,313,0.8,3.1,58,0.00,,,0.00,WSDL version 420,2013-03-07 09:49:00,
2013-03-07 03:54:00,40.3,26.7,30.21,NNW,338,0.0,3.1,58,-99.99,,,-99.99,WSDL version 420,2013-03-07 09:54:00,
2013-03-07 03:59:00,40.3,26.7,30.21,North,356,1.0,2.7,58,0.00,,,0.00,WSDL version 420,2013-03-07 09:59:00,
2013-03-07 04:04:00,40.1,26.5,30.21,NE,45,0.4,2.7,58,0.00,,,0.00,WSDL version 420,2013-03-07 10:04:00,
2013-03-07 04:09:00,40.1,26.5,30.21,North,3,0.1,3.6,58,0.00,,,0.00,WSDL version 420,2013-03-07 10:09:00,
2013-03-07 04:14:00,39.9,26.2,30.21,NNW,338,0.0,3.6,57,0.00,,,0.00,WSDL version 420,2013-03-07 10:14:00,
2013-03-07 04:19:00,39.9,25.9,30.21,North,360,0.4,2.9,57,0.00,,,0.00,WSDL version 420,2013-03-07 10:19:00,
2013-03-07 04:24:00,39.8,26.1,30.21,ENE,64,0.5,2.9,58,-99.99,,,-99.99,WSDL version 420,2013-03-07 10:24:00,
2013-03-07 04:29:00,39.7,26.2,30.21,NE,48,0.8,2.9,58,0.00,,,0.00,WSDL version 420,2013-03-07 10:29:00,
2013-03-07 04:34:00,39.7,26.2,30.21,NNE,23,0.9,3.4,58,0.00,,,0.00,WSDL version 420,2013-03-07 10:34:00,
2013-03-07 04:39:00,39.7,26.3,30.21,North,360,0.1,3.4,59,0.00,,,0.00,WSDL version 420,2013-03-07 10:39:00,
2013-03-07 04:44:00,39.6,26.5,30.21,NNW,347,0.2,3.1,59,0.00,,,0.00,WSDL version 420,2013-03-07 10:44:00,
2013-03-07 04:50:00,39.5,26.4,30.21,North,11,0.6,2.2,59,0.00,,,0.00,WSDL version 420,2013-03-07 10:50:00,
2013-03-07 04:55:00,39.4,26.3,30.21,North,11,0.3,2.2,59,0.00,,,0.00,WSDL version 420,2013-03-07 10:55:00,
2013-03-07 05:00:00,39.4,26.3,30.18,NE,53,0.6,2.5,59,0.00,,,0.00,WSDL version 420,2013-03-07 11:00:00,
2013-03-07 05:05:00,39.4,26.7,30.18,North,350,1.6,4.5,60,0.00,,,0.00,WSDL version 420,2013-03-07 11:05:00,
2013-03-07 05:10:00,39.4,26.7,30.18,WNW,293,0.0,4.5,60,-99.99,,,-99.99,WSDL version 420,2013-03-07 11:10:00,
2013-03-07 05:15:00,39.4,26.9,30.21,ENE,64,1.1,2.9,61,0.00,,,0.00,WSDL version 420,2013-03-07 11:15:00,
2013-03-07 05:21:00,39.4,27.1,30.21,East,79,1.6,3.6,61,0.00,,,0.00,WSDL version 420,2013-03-07 11:21:00,
2013-03-07 05:26:00,39.5,27.2,30.21,East,81,2.0,3.8,61,0.00,,,0.00,WSDL version 420,2013-03-07 11:26:00,
2013-03-07 05:31:00,39.6,27.2,30.21,ENE,68,3.0,4.3,61,0.00,,,0.00,WSDL version 420,2013-03-07 11:31:00,
2013-03-07 05:36:00,39.6,27.2,30.21,ENE,75,3.1,6.3,61,0.00,,,0.00,WSDL version 420,2013-03-07 11:36:00,
2013-03-07 05:42:00,39.6,27.2,30.21,NE,48,1.7,6.3,61,0.00,,,0.00,WSDL version 420,2013-03-07 11:42:00,
2013-03-07 05:48:00,39.4,26.7,30.21,NE,53,0.8,3.6,60,0.00,,,0.00,WSDL version 420,2013-03-07 11:48:00,
2013-03-07 05:53:00,39.4,26.7,30.21,SSE,161,1.5,3.4,60,0.00,,,0.00,WSDL version 420,2013-03-07 11:53:00,
2013-03-07 05:59:00,39.3,26.6,30.21,NE,53,0.9,3.4,60,0.00,,,0.00,WSDL version 420,2013-03-07 11:59:00,
2013-03-07 06:05:00,39.2,26.5,30.21,East,90,1.9,4.3,60,0.00,,,0.00,WSDL version 420,2013-03-07 12:05:00,
2013-03-07 06:10:00,39.2,26.5,30.21,NNE,26,0.7,4.3,60,0.00,,,0.00,WSDL version 420,2013-03-07 12:10:00,
2013-03-07 06:15:00,39.2,26.5,30.21,East,96,1.4,4.3,60,0.00,,,0.00,WSDL version 420,2013-03-07 12:15:00,
2013-03-07 06:21:00,39.3,26.9,30.21,NE,34,1.4,4.3,61,0.00,,,0.00,WSDL version 420,2013-03-07 12:21:00,
2013-03-07 06:26:00,39.4,27.1,30.21,ENE,65,0.8,4.3,61,0.00,,,0.00,WSDL version 420,2013-03-07 12:26:00,
2013-03-07 06:31:00,39.4,27.1,30.21,NE,39,1.0,4.3,61,0.00,,,0.00,WSDL version 420,2013-03-07 12:31:00,
2013-03-07 06:36:00,39.6,27.2,30.21,ESE,119,1.4,4.3,61,0.00,,,0.00,WSDL version 420,2013-03-07 12:36:00,
2013-03-07 06:41:00,39.7,27.4,30.21,NNE,32,1.1,3.6,61,0.00,,,0.00,WSDL version 420,2013-03-07 12:41:00,
2013-03-07 06:46:00,39.7,27.4,30.24,NNE,25,1.9,4.0,61,0.00,,,0.00,WSDL version 420,2013-03-07 12:46:00,
2013-03-07 06:51:00,39.7,27.4,30.24,SW,217,2.1,4.9,61,0.00,,,0.00,WSDL version 420,2013-03-07 12:51:00,
2013-03-07 06:56:00,39.7,27.4,30.24,East,90,0.6,4.9,61,0.00,,,0.00,WSDL version 420,2013-03-07 12:56:00,
2013-03-07 07:01:00,39.7,27.3,30.24,East,87,1.7,4.0,60,0.00,,,0.00,WSDL version 420,2013-03-07 13:01:00,
2013-03-07 07:06:00,39.7,27.0,30.24,East,95,1.5,4.3,60,0.00,,,0.00,WSDL version 420,2013-03-07 13:06:00,
2013-03-07 07:11:00,39.7,27.0,30.24,North,8,1.6,4.3,60,-99.99,,,-99.99,WSDL version 420,2013-03-07 13:11:00,
2013-03-07 07:16:00,39.8,27.0,30.27,NE,52,1.6,3.8,60,0.00,,,0.00,WSDL version 420,2013-03-07 13:16:00,
2013-03-07 07:21:00,40.0,27.2,30.27,North,349,1.1,3.1,60,0.00,,,0.00,WSDL version 420,2013-03-07 13:21:00,
2013-03-07 07:26:00,40.6,27.9,30.27,ENE,70,1.4,3.1,61,0.00,,,0.00,WSDL version 420,2013-03-07 13:26:00,
2013-03-07 07:31:00,41.1,28.3,30.27,NW,326,1.0,2.9,60,0.00,,,0.00,WSDL version 420,2013-03-07 13:31:00,
2013-03-07 07:36:00,41.8,28.9,30.27,North,3,0.5,2.9,60,0.00,,,0.00,WSDL version 420,2013-03-07 13:36:00,
2013-03-07 07:41:00,42.6,29.1,30.27,NE,39,1.1,3.8,58,0.00,,,0.00,WSDL version 420,2013-03-07 13:41:00,
2013-03-07 07:46:00,43.7,29.7,30.30,NNW,341,1.7,3.8,57,0.00,,,0.00,WSDL version 420,2013-03-07 13:46:00,
2013-03-07 07:51:00,44.6,29.3,30.30,NNW,329,1.5,5.4,54,-99.99,,,-99.99,WSDL version 420,2013-03-07 13:51:00,
2013-03-07 07:56:00,44.0,28.3,30.30,NE,51,2.1,5.4,53,0.00,,,0.00,WSDL version 420,2013-03-07 13:56:00,
2013-03-07 08:01:00,43.3,27.7,30.27,NNE,28,0.6,3.8,54,0.00,,,0.00,WSDL version 420,2013-03-07 14:01:00,
2013-03-07 08:07:00,42.8,27.3,30.27,NW,315,0.6,3.4,54,0.00,,,0.00,WSDL version 420,2013-03-07 14:07:00,
2013-03-07 08:12:00,43.0,27.5,30.27,NNW,332,1.7,3.4,54,0.00,,,0.00,WSDL version 420,2013-03-07 14:12:00,
2013-03-07 08:17:00,43.5,27.9,30.27,ENE,58,0.5,3.4,54,-99.99,,,-99.99,WSDL version 420,2013-03-07 14:17:00,
2013-03-07 08:22:00,43.3,27.8,30.27,West,260,1.4,3.4,54,0.00,,,0.00,WSDL version 420,2013-03-07 14:22:00,
2013-03-07 08:28:00,43.3,27.6,30.30,NE,41,1.5,3.6,53,0.00,,,0.00,WSDL version 420,2013-03-07 14:28:00,
2013-03-07 08:33:00,43.6,28.1,30.30,NNE,14,2.0,4.3,54,0.00,,,0.00,WSDL version 420,2013-03-07 14:33:00,
2013-03-07 08:38:00,43.7,28.2,30.30,NNW,338,2.4,5.6,54,0.00,,,0.00,WSDL version 420,2013-03-07 14:38:00,
2013-03-07 08:44:00,43.8,28.2,30.30,ENE,62,1.9,5.8,53,0.00,,,0.00,WSDL version 420,2013-03-07 14:44:00,
2013-03-07 08:49:00,44.0,28.0,30.30,WNW,288,1.4,5.8,53,0.00,,,0.00,WSDL version 420,2013-03-07 14:49:00,
2013-03-07 08:54:00,44.2,28.1,30.30,North,6,1.5,3.6,53,0.00,,,0.00,WSDL version 420,2013-03-07 14:54:00,
2013-03-07 08:59:00,44.2,28.2,30.30,NNW,332,0.6,4.7,53,0.00,,,0.00,WSDL version 420,2013-03-07 14:59:00,
2013-03-07 09:05:00,44.8,28.2,30.30,East,83,2.8,6.0,52,-99.99,,,-99.99,WSDL version 420,2013-03-07 15:05:00,
2013-03-07 09:10:00,45.1,28.5,30.30,SSW,212,0.9,6.0,52,0.00,,,0.00,WSDL version 420,2013-03-07 15:10:00,
2013-03-07 09:15:00,45.5,28.9,30.30,NW,319,0.9,3.8,52,-99.99,,,-99.99,WSDL version 420,2013-03-07 15:15:00,
2013-03-07 09:20:00,45.9,29.0,30.30,East,101,1.6,4.0,51,0.00,,,0.00,WSDL version 420,2013-03-07 15:20:00,
2013-03-07 09:25:00,46.0,28.9,30.30,WNW,299,1.6,4.0,51,-99.99,,,-99.99,WSDL version 420,2013-03-07 15:25:00,
2013-03-07 09:30:00,46.1,29.0,30.27,WSW,257,2.5,3.6,51,0.00,,,0.00,WSDL version 420,2013-03-07 15:30:00,
2013-03-07 09:36:00,46.6,29.1,30.27,NNE,26,2.6,5.4,50,0.00,,,0.00,WSDL version 420,2013-03-07 15:36:00,
2013-03-07 09:41:00,47.0,29.4,30.27,North,6,1.1,5.4,50,0.00,,,0.00,WSDL version 420,2013-03-07 15:41:00,
2013-03-07 09:46:00,47.3,29.4,30.27,NNW,332,1.7,4.0,50,0.00,,,0.00,WSDL version 420,2013-03-07 15:46:00,
2013-03-07 09:51:00,47.3,29.2,30.27,North,11,1.1,4.0,49,0.00,,,0.00,WSDL version 420,2013-03-07 15:51:00,
2013-03-07 09:56:00,47.6,29.4,30.27,WNW,301,1.6,3.8,49,0.00,,,0.00,WSDL version 420,2013-03-07 15:56:00,
2013-03-07 10:03:00,48.1,29.4,30.27,NE,45,2.1,6.5,48,0.00,,,0.00,WSDL version 420,2013-03-07 16:03:00,
2013-03-07 10:08:00,48.3,29.5,30.27,SE,143,0.7,6.5,48,0.00,,,0.00,WSDL version 420,2013-03-07 16:08:00,
2013-03-07 10:13:00,48.6,29.5,30.27,NW,321,2.3,4.7,47,0.00,,,0.00,WSDL version 420,2013-03-07 16:13:00,
2013-03-07 10:18:00,48.8,29.5,30.27,NW,304,2.1,4.9,47,0.00,,,0.00,WSDL version 420,2013-03-07 16:18:00,
2013-03-07 10:24:00,49.6,30.2,30.27,WNW,296,1.1,4.3,47,-99.99,,,-99.99,WSDL version 420,2013-03-07 16:24:00,
2013-03-07 10:29:00,49.8,29.8,30.27,West,276,2.9,5.4,46,0.00,,,0.00,WSDL version 420,2013-03-07 16:29:00,
2013-03-07 10:35:00,50.3,30.0,30.27,NNW,338,1.1,6.3,45,0.00,,,0.00,WSDL version 420,2013-03-07 16:35:00,
2013-03-07 10:40:00,50.5,29.7,30.27,East,84,3.3,5.6,44,0.00,,,0.00,WSDL version 420,2013-03-07 16:40:00,
2013-03-07 10:45:00,50.9,29.4,30.24,NE,51,2.5,6.0,44,0.00,,,0.00,WSDL version 420,2013-03-07 16:45:00,
2013-03-07 10:51:00,51.5,30.0,30.24,NW,326,2.5,6.0,43,0.00,,,0.00,WSDL version 420,2013-03-07 16:51:00,
2013-03-07 10:56:00,51.9,30.1,30.27,WNW,290,2.3,5.6,43,-99.99,,,-99.99,WSDL version 420,2013-03-07 16:56:00,
2013-03-07 11:01:00,52.4,30.3,30.27,NNE,19,1.0,5.4,43,0.00,,,0.00,WSDL version 420,2013-03-07 17:01:00,
2013-03-07 11:07:00,52.7,30.3,30.27,North,357,1.8,5.4,42,0.00,,,0.00,WSDL version 420,2013-03-07 17:07:00,
2013-03-07 11:12:00,53.2,30.8,30.24,West,280,1.4,5.4,42,0.00,,,0.00,WSDL version 420,2013-03-07 17:12:00,
2013-03-07 11:20:00,53.7,30.9,30.24,East,79,1.6,4.9,42,0.00,,,0.00,WSDL version 420,2013-03-07 17:20:00,
2013-03-07 11:25:00,53.9,31.2,30.24,West,281,1.8,4.9,42,0.00,,,0.00,WSDL version 420,2013-03-07 17:25:00,
2013-03-07 11:30:00,54.2,31.1,30.27,NW,326,0.8,3.6,41,0.00,,,0.00,WSDL version 420,2013-03-07 17:30:00,
2013-03-07 11:36:00,54.8,31.8,30.27,West,273,1.0,4.7,42,0.00,,,0.00,WSDL version 420,2013-03-07 17:36:00,
2013-03-07 11:41:00,55.2,32.1,30.27,WSW,254,1.3,4.7,41,0.00,,,0.00,WSDL version 420,2013-03-07 17:41:00,
2013-03-07 11:46:00,55.4,31.8,30.24,ESE,103,2.3,4.0,41,0.00,,,0.00,WSDL version 420,2013-03-07 17:46:00,
2013-03-07 11:51:00,55.8,32.1,30.24,East,80,0.5,4.0,41,0.00,,,0.00,WSDL version 420,2013-03-07 17:51:00,
2013-03-07 11:56:00,56.2,32.2,30.24,East,90,0.5,4.0,40,-99.99,,,-99.99,WSDL version 420,2013-03-07 17:56:00,
2013-03-07 12:01:00,56.3,32.3,30.27,East,87,2.0,4.3,40,0.00,,,0.00,WSDL version 420,2013-03-07 18:01:00,
2013-03-07 12:06:00,56.5,32.3,30.27,ENE,71,3.0,4.9,40,0.00,,,0.00,WSDL version 420,2013-03-07 18:06:00,
2013-03-07 12:11:00,56.8,32.6,30.27,East,84,3.2,5.4,40,0.00,,,0.00,WSDL version 420,2013-03-07 18:11:00,
2013-03-07 12:16:00,57.2,32.8,30.24,East,84,1.4,5.4,39,-99.99,,,-99.99,WSDL version 420,2013-03-07 18:16:00,
2013-03-07 12:21:00,57.6,32.8,30.24,East,90,1.6,4.3,39,0.00,,,0.00,WSDL version 420,2013-03-07 18:21:00,
2013-03-07 12:26:00,57.6,32.6,30.24,SSW,194,0.5,4.3,39,0.00,,,0.00,WSDL version 420,2013-03-07 18:26:00,
2013-03-07 12:31:00,58.1,33.3,30.21,WSW,241,1.3,4.9,39,0.00,,,0.00,WSDL version 420,2013-03-07 18:31:00,
2013-03-07 12:36:00,58.6,33.6,30.21,West,270,2.8,6.7,38,0.00,,,0.00,WSDL version 420,2013-03-07 18:36:00,
2013-03-07 12:41:00,59.0,33.1,30.21,WNW,295,2.0,6.7,37,0.00,,,0.00,WSDL version 420,2013-03-07 18:41:00,
2013-03-07 12:46:00,59.1,32.9,30.18,WNW,289,2.2,5.4,37,0.00,,,0.00,WSDL version 420,2013-03-07 18:46:00,
2013-03-07 12:51:00,59.2,32.8,30.18,NE,34,1.9,3.8,37,0.00,,,0.00,WSDL version 420,2013-03-07 18:51:00,
2013-03-07 12:56:00,59.4,32.4,30.18,West,281,3.3,5.8,36,0.00,,,0.00,WSDL version 420,2013-03-07 18:56:00,
2013-03-07 13:01:00,59.4,32.5,30.21,West,270,3.4,5.8,36,0.00,,,0.00,WSDL version 420,2013-03-07 19:01:00,
2013-03-07 13:06:00,59.9,32.9,30.21,West,281,1.1,5.6,36,0.00,,,0.00,WSDL version 420,2013-03-07 19:06:00,
2013-03-07 13:11:00,60.4,33.3,30.21,WNW,283,4.0,6.0,36,0.00,,,0.00,WSDL version 420,2013-03-07 19:11:00,
2013-03-07 13:16:00,60.8,33.7,30.21,NW,312,0.0,6.0,36,0.00,,,0.00,WSDL version 420,2013-03-07 19:16:00,
2013-03-07 13:21:00,61.2,34.0,30.21,West,267,3.0,6.0,36,0.00,,,0.00,WSDL version 420,2013-03-07 19:21:00,
2013-03-07 13:26:00,61.0,33.9,30.21,WSW,241,1.6,6.0,36,0.00,,,0.00,WSDL version 420,2013-03-07 19:26:00,
2013-03-07 13:31:00,61.2,33.9,30.21,NE,51,1.5,3.8,36,0.00,,,0.00,WSDL version 420,2013-03-07 19:31:00,
2013-03-07 13:37:00,61.2,33.4,30.21,ENE,72,2.4,6.0,35,-99.99,,,-99.99,WSDL version 420,2013-03-07 19:37:00,
2013-03-07 13:42:00,61.5,34.1,30.18,West,263,3.1,6.5,36,0.00,,,0.00,WSDL version 420,2013-03-07 19:42:00,
2013-03-07 13:47:00,61.7,33.8,30.18,North,11,1.6,6.5,35,0.00,,,0.00,WSDL version 420,2013-03-07 19:47:00,
2013-03-07 13:52:00,61.7,33.8,30.18,East,98,2.3,4.7,35,0.00,,,0.00,WSDL version 420,2013-03-07 19:52:00,
2013-03-07 13:57:00,61.7,33.8,30.18,NNE,17,0.0,4.7,35,-99.99,,,-99.99,WSDL version 420,2013-03-07 19:57:00,
2013-03-07 14:02:00,61.9,34.0,30.18,West,278,1.2,4.3,35,0.00,,,0.00,WSDL version 420,2013-03-07 20:02:00,
2013-03-07 14:07:00,61.9,34.0,30.18,West,270,3.1,4.7,35,0.00,,,0.00,WSDL version 420,2013-03-07 20:07:00,
2013-03-07 14:12:00,61.7,33.8,30.18,NW,312,3.6,6.3,35,0.00,,,0.00,WSDL version 420,2013-03-07 20:12:00,
2013-03-07 14:17:00,61.8,33.9,30.18,ESE,109,1.8,6.3,35,0.00,,,0.00,WSDL version 420,2013-03-07 20:17:00,
2013-03-07 14:22:00,62.3,34.4,30.18,SSW,209,0.6,3.8,35,0.00,,,0.00,WSDL version 420,2013-03-07 20:22:00,
2013-03-07 14:27:00,62.7,34.7,30.18,West,259,0.6,2.7,35,0.00,,,0.00,WSDL version 420,2013-03-07 20:27:00,
2013-03-07 14:32:00,62.6,35.3,30.18,WSW,254,2.5,4.0,36,0.00,,,0.00,WSDL version 420,2013-03-07 20:32:00,
2013-03-07 14:38:00,62.1,34.8,30.18,West,281,1.5,4.3,36,0.00,,,0.00,WSDL version 420,2013-03-07 20:38:00,
2013-03-07 14:43:00,62.1,35.5,30.18,SW,225,0.0,4.3,37,0.00,,,0.00,WSDL version 420,2013-03-07 20:43:00,
2013-03-07 14:48:00,62.4,35.8,30.18,East,90,0.4,2.9,37,0.00,,,0.00,WSDL version 420,2013-03-07 20:48:00,
2013-03-07 14:53:00,62.6,36.0,30.18,East,90,1.8,3.4,37,0.00,,,0.00,WSDL version 420,2013-03-07 20:53:00,
2013-03-07 14:58:00,62.4,35.8,30.18,SW,235,0.4,4.5,37,0.00,,,0.00,WSDL version 420,2013-03-07 20:58:00,
2013-03-07 15:03:00,62.2,36.0,30.18,SW,219,0.0,4.5,38,-99.99,,,-99.99,WSDL version 420,2013-03-07 21:03:00,
2013-03-07 15:08:00,62.2,36.3,30.18,West,264,0.5,3.6,38,0.00,,,0.00,WSDL version 420,2013-03-07 21:08:00,
2013-03-07 15:13:00,62.3,36.7,30.18,East,84,0.5,3.6,39,0.00,,,0.00,WSDL version 420,2013-03-07 21:13:00,
2013-03-07 15:19:00,62.4,37.2,30.18,WSW,244,0.6,3.1,39,0.00,,,0.00,WSDL version 420,2013-03-07 21:19:00,
2013-03-07 15:24:00,62.4,37.1,30.18,SW,236,0.0,2.7,39,0.00,,,0.00,WSDL version 420,2013-03-07 21:24:00,
2013-03-07 15:29:00,62.1,37.5,30.18,SW,228,1.6,4.3,40,0.00,,,0.00,WSDL version 420,2013-03-07 21:29:00,
2013-03-07 15:34:00,61.8,37.2,30.18,West,273,0.4,4.3,40,0.00,,,0.00,WSDL version 420,2013-03-07 21:34:00,
2013-03-07 15:39:00,61.6,37.0,30.18,WSW,240,0.0,3.8,40,0.00,,,0.00,WSDL version 420,2013-03-07 21:39:00,
2013-03-07 15:44:00,61.3,36.8,30.15,SSW,195,0.0,3.8,40,0.00,,,0.00,WSDL version 420,2013-03-07 21:44:00,
2013-03-07 15:49:00,61.3,37.4,30.15,WSW,248,0.0,0.0,41,-99.99,,,-99.99,WSDL version 420,2013-03-07 21:49:00,
2013-03-07 15:54:00,61.1,37.2,30.15,West,264,0.0,0.0,41,0.00,,,0.00,WSDL version 420,2013-03-07 21:54:00,
2013-03-07 16:00:00,60.9,37.4,30.18,SW,225,0.0,0.0,42,0.00,,,0.00,WSDL version 420,2013-03-07 22:00:00,
2013-03-07 16:05:00,60.7,37.8,30.18,WNW,301,0.4,3.1,43,0.00,,,0.00,WSDL version 420,2013-03-07 22:05:00,
2013-03-07 16:10:00,60.6,38.2,30.18,WSW,238,0.0,3.1,44,0.00,,,0.00,WSDL version 420,2013-03-07 22:10:00,
2013-03-07 16:15:00,60.4,38.4,30.18,NNW,331,0.0,0.0,44,-99.99,,,-99.99,WSDL version 420,2013-03-07 22:15:00,
2013-03-07 16:20:00,60.3,38.3,30.18,SW,236,0.0,0.0,44,0.00,,,0.00,WSDL version 420,2013-03-07 22:20:00,
2013-03-07 16:25:00,60.1,38.2,30.18,WSW,254,0.0,0.0,44,0.00,,,0.00,WSDL version 420,2013-03-07 22:25:00,
2013-03-07 16:30:00,60.0,38.6,30.15,WSW,256,0.0,0.0,45,0.00,,,0.00,WSDL version 420,2013-03-07 22:30:00,
2013-03-07 16:35:00,59.9,38.5,30.15,WSW,240,0.0,0.0,45,0.00,,,0.00,WSDL version 420,2013-03-07 22:35:00,
2013-03-07 16:41:00,59.8,38.4,30.18,SW,230,0.0,1.3,45,-99.99,,,-99.99,WSDL version 420,2013-03-07 22:41:00,
2013-03-07 16:46:00,59.6,38.3,30.18,WNW,302,0.0,1.3,45,-99.99,,,-99.99,WSDL version 420,2013-03-07 22:46:00,
2013-03-07 16:51:00,59.3,38.4,30.18,SW,236,0.0,0.0,46,0.00,,,0.00,WSDL version 420,2013-03-07 22:51:00,
2013-03-07 16:56:00,59.0,38.2,30.18,West,264,0.0,0.0,46,0.00,,,0.00,WSDL version 420,2013-03-07 22:56:00,
2013-03-07 17:01:00,58.7,38.6,30.18,WSW,253,0.0,0.9,47,-99.99,,,-99.99,WSDL version 420,2013-03-07 23:01:00,
2013-03-07 17:07:00,58.4,38.3,30.18,West,267,0.0,0.9,47,0.00,,,0.00,WSDL version 420,2013-03-07 23:07:00,
2013-03-07 17:12:00,58.1,38.3,30.15,SW,225,0.0,0.9,48,-99.99,,,-99.99,WSDL version 420,2013-03-07 23:12:00,
2013-03-07 17:18:00,57.9,38.4,30.15,WSW,253,0.0,0.9,48,0.00,,,0.00,WSDL version 420,2013-03-07 23:18:00,
2013-03-07 17:26:00,57.7,38.7,30.15,West,270,0.0,1.6,49,0.00,,,0.00,WSDL version 420,2013-03-07 23:26:00,
2013-03-07 17:31:00,57.5,38.5,30.18,West,270,0.0,1.6,49,0.00,,,0.00,WSDL version 420,2013-03-07 23:31:00,
2013-03-07 17:36:00,57.3,38.8,30.18,WSW,242,0.0,2.2,50,0.00,,,0.00,WSDL version 420,2013-03-07 23:36:00,
2013-03-07 17:41:00,57.1,39.0,30.18,WSW,244,0.0,2.2,51,0.00,,,0.00,WSDL version 420,2013-03-07 23:41:00,
2013-03-07 17:46:00,56.8,39.4,30.18,WNW,283,1.1,2.7,52,-99.99,,,-99.99,WSDL version 420,2013-03-07 23:46:00,
2013-03-07 17:51:00,56.7,39.6,30.18,West,264,0.8,3.4,53,0.00,,,0.00,WSDL version 420,2013-03-07 23:51:00,
2013-03-07 17:56:00,56.5,39.6,30.18,West,259,0.0,3.4,53,0.00,,,0.00,WSDL version 420,2013-03-07 23:56:00,
2013-03-07 18:01:00,56.3,39.4,30.18,WNW,290,0.1,2.0,53,0.00,,,0.00,WSDL version 420,2013-03-08 00:01:00,
2013-03-07 18:06:00,56.2,39.4,30.18,West,263,0.0,2.0,54,0.00,,,0.00,WSDL version 420,2013-03-08 00:06:00,
2013-03-07 18:12:00,55.9,39.4,30.18,West,281,0.0,1.1,53,0.00,,,0.00,WSDL version 420,2013-03-08 00:12:00,
2013-03-07 18:17:00,55.8,39.4,30.18,WNW,286,0.0,2.2,54,0.00,,,0.00,WSDL version 420,2013-03-08 00:17:00,
2013-03-07 18:22:00,55.5,39.4,30.18,West,270,0.0,2.2,55,0.00,,,0.00,WSDL version 420,2013-03-08 00:22:00,
2013-03-07 18:27:00,55.4,39.5,30.21,WSW,251,0.0,1.6,55,-99.99,,,-99.99,WSDL version 420,2013-03-08 00:27:00,
2013-03-07 18:32:00,55.1,39.7,30.21,West,276,0.0,0.0,56,0.00,,,0.00,WSDL version 420,2013-03-08 00:32:00,
2013-03-07 18:37:00,55.0,39.6,30.21,West,268,0.0,0.0,56,0.00,,,0.00,WSDL version 420,2013-03-08 00:37:00,
2013-03-07 18:42:00,54.8,39.8,30.18,West,267,0.0,0.0,57,0.00,,,0.00,WSDL version 420,2013-03-08 00:42:00,
2013-03-07 18:47:00,54.7,39.9,30.18,West,261,0.0,0.0,57,0.00,,,0.00,WSDL version 420,2013-03-08 00:47:00,
2013-03-07 18:52:00,54.5,40.0,30.18,West,270,0.0,0.0,58,0.00,,,0.00,WSDL version 420,2013-03-08 00:52:00,
2013-03-07 18:57:00,54.3,39.9,30.18,West,267,0.0,0.0,58,0.00,,,0.00,WSDL version 420,2013-03-08 00:57:00,
2013-03-07 19:02:00,54.1,40.1,30.18,West,276,0.5,2.0,59,0.00,,,0.00,WSDL version 420,2013-03-08 01:02:00,
2013-03-07 19:08:00,53.9,39.9,30.18,West,270,0.0,2.0,59,0.00,,,0.00,WSDL version 420,2013-03-08 01:08:00,
2013-03-07 19:13:00,53.8,40.5,30.21,WNW,293,1.0,2.0,61,0.00,,,0.00,WSDL version 420,2013-03-08 01:13:00,
2013-03-07 19:18:00,53.7,40.6,30.21,West,274,0.0,2.0,61,0.00,,,0.00,WSDL version 420,2013-03-08 01:18:00,
2013-03-07 19:23:00,53.6,40.5,30.21,WNW,286,0.0,1.1,61,0.00,,,0.00,WSDL version 420,2013-03-08 01:23:00,
2013-03-07 19:28:00,53.4,40.7,30.18,West,280,0.0,1.1,62,0.00,,,0.00,WSDL version 420,2013-03-08 01:28:00,
2013-03-07 19:33:00,53.3,41.1,30.18,West,270,0.0,0.0,63,0.00,,,0.00,WSDL version 420,2013-03-08 01:33:00,
2013-03-07 19:38:00,53.1,40.8,30.18,West,278,0.0,0.0,63,0.00,,,0.00,WSDL version 420,2013-03-08 01:38:00,
2013-03-07 19:43:00,53.1,41.1,30.18,West,278,0.0,0.0,64,0.00,,,0.00,WSDL version 420,2013-03-08 01:43:00,
2013-03-07 19:48:00,52.9,41.0,30.18,West,270,0.0,0.0,64,0.00,,,0.00,WSDL version 420,2013-03-08 01:48:00,
2013-03-07 19:53:00,52.7,40.9,30.18,West,273,0.0,0.0,64,0.00,,,0.00,WSDL version 420,2013-03-08 01:53:00,
2013-03-07 19:58:00,52.7,41.6,30.18,WNW,285,1.3,2.5,66,0.00,,,0.00,WSDL version 420,2013-03-08 01:58:00,
2013-03-07 20:03:00,52.7,41.7,30.18,West,281,1.4,3.8,66,0.00,,,0.00,WSDL version 420,2013-03-08 02:03:00,
2013-03-07 20:08:00,52.6,41.5,30.18,West,270,1.1,3.8,66,0.00,,,0.00,WSDL version 420,2013-03-08 02:08:00,
2013-03-07 20:13:00,52.4,41.4,30.21,NW,304,1.3,2.9,66,0.00,,,0.00,WSDL version 420,2013-03-08 02:13:00,
2013-03-07 20:18:00,52.2,41.1,30.21,WNW,293,1.0,2.9,66,-99.99,,,-99.99,WSDL version 420,2013-03-08 02:18:00,
2013-03-07 20:23:00,52.1,40.7,30.21,West,280,0.5,2.7,65,0.00,,,0.00,WSDL version 420,2013-03-08 02:23:00,
2013-03-07 20:28:00,51.9,40.5,30.21,West,273,1.3,2.7,65,0.00,,,0.00,WSDL version 420,2013-03-08 02:28:00,
2013-03-07 20:33:00,51.7,40.3,30.21,West,267,0.2,3.8,65,0.00,,,0.00,WSDL version 420,2013-03-08 02:33:00,
2013-03-07 20:38:00,51.5,40.6,30.21,West,275,2.5,3.8,66,-99.99,,,-99.99,WSDL version 420,2013-03-08 02:38:00,
2013-03-07 20:43:00,51.3,40.3,30.21,WNW,286,2.2,4.0,66,0.00,,,0.00,WSDL version 420,2013-03-08 02:43:00,
2013-03-07 20:48:00,51.1,40.1,30.21,West,273,1.9,4.0,66,0.00,,,0.00,WSDL version 420,2013-03-08 02:48:00,
2013-03-07 20:54:00,50.9,40.0,30.21,WNW,287,2.2,3.8,66,0.00,,,0.00,WSDL version 420,2013-03-08 02:54:00,
2013-03-07 20:59:00,50.7,40.0,30.21,WNW,283,2.5,3.8,67,-99.99,,,-99.99,WSDL version 420,2013-03-08 02:59:00,
2013-03-07 21:04:00,50.6,40.0,30.21,West,278,1.7,3.1,67,0.00,,,0.00,WSDL version 420,2013-03-08 03:04:00,
2013-03-07 21:09:00,50.4,39.7,30.21,West,276,0.5,3.1,67,0.00,,,0.00,WSDL version 420,2013-03-08 03:09:00,
2013-03-07 21:14:00,50.2,39.6,30.21,West,270,0.0,2.0,67,0.00,,,0.00,WSDL version 420,2013-03-08 03:14:00,
2013-03-07 21:19:00,50.1,39.5,30.21,WNW,286,1.4,2.9,67,0.00,,,0.00,WSDL version 420,2013-03-08 03:19:00,
2013-03-07 21:24:00,50.0,39.6,30.21,West,273,1.3,2.9,68,-99.99,,,-99.99,WSDL version 420,2013-03-08 03:24:00,
2013-03-07 21:29:00,49.8,39.7,30.21,West,276,1.2,2.5,68,0.00,,,0.00,WSDL version 420,2013-03-08 03:29:00,
2013-03-07 21:34:00,49.8,39.7,30.21,WNW,293,1.1,2.5,69,0.00,,,0.00,WSDL version 420,2013-03-08 03:34:00,
2013-03-07 21:39:00,49.6,39.9,30.21,WNW,289,0.5,3.1,69,0.00,,,0.00,WSDL version 420,2013-03-08 03:39:00,
2013-03-07 21:44:00,49.6,39.8,30.21,WNW,289,1.0,3.1,69,0.00,,,0.00,WSDL version 420,2013-03-08 03:44:00,
2013-03-07 21:49:00,49.5,39.7,30.21,West,270,0.0,2.0,69,0.00,,,0.00,WSDL version 420,2013-03-08 03:49:00,
2013-03-07 21:55:00,49.3,39.6,30.21,WNW,283,0.8,2.5,69,0.00,,,0.00,WSDL version 420,2013-03-08 03:55:00,
2013-03-07 22:00:00,49.3,39.9,30.21,West,263,2.2,3.4,70,0.00,,,0.00,WSDL version 420,2013-03-08 04:00:00,
2013-03-07 22:06:00,49.3,39.9,30.21,WNW,302,0.0,3.4,70,0.00,,,0.00,WSDL version 420,2013-03-08 04:06:00,
2013-03-07 22:11:00,49.2,40.2,30.21,WNW,289,1.2,2.7,71,0.00,,,0.00,WSDL version 420,2013-03-08 04:11:00,
2013-03-07 22:16:00,49.1,39.8,30.21,NW,306,0.0,2.7,70,0.00,,,0.00,WSDL version 420,2013-03-08 04:16:00,
2013-03-07 22:21:00,48.9,39.6,30.21,West,281,0.0,0.0,70,0.00,,,0.00,WSDL version 420,2013-03-08 04:21:00,
2013-03-07 22:26:00,48.7,39.4,30.21,West,270,0.1,1.3,70,0.00,,,0.00,WSDL version 420,2013-03-08 04:26:00,
2013-03-07 22:31:00,48.7,39.8,30.21,West,270,0.1,1.3,71,0.00,,,0.00,WSDL version 420,2013-03-08 04:31:00,
2013-03-07 22:36:00,48.7,39.8,30.21,WNW,283,0.0,1.1,71,0.00,,,0.00,WSDL version 420,2013-03-08 04:36:00,
2013-03-07 22:41:00,48.6,39.6,30.21,West,270,0.4,1.6,71,0.00,,,0.00,WSDL version 420,2013-03-08 04:41:00,
2013-03-07 22:46:00,48.5,39.5,30.21,NW,307,0.0,1.6,71,0.00,,,0.00,WSDL version 420,2013-03-08 04:46:00,
2013-03-07 22:51:00,48.3,39.6,30.21,West,273,0.6,1.6,72,0.00,,,0.00,WSDL version 420,2013-03-08 04:51:00,
2013-03-07 22:57:00,48.2,39.6,30.21,West,278,0.0,1.3,72,0.00,,,0.00,WSDL version 420,2013-03-08 04:57:00,
2013-03-07 23:00:00,48.1,39.5,30.21,WNW,286,0.0,1.3,72,0.00,,,0.00,WSDL version 420,2013-03-08 05:00:00,
2013-03-07 23:07:00,47.9,39.3,30.21,West,270,0.0,0.0,72,0.00,,,0.00,WSDL version 420,2013-03-08 05:07:00,
2013-03-07 23:08:00,47.8,39.3,30.21,West,270,0.0,0.0,72,0.00,,,0.00,WSDL version 420,2013-03-08 05:08:00,
2013-03-07 23:13:00,47.8,39.4,30.21,West,270,0.0,0.0,73,0.00,,,0.00,WSDL version 420,2013-03-08 05:13:00,
2013-03-07 23:18:00,47.7,39.2,30.21,West,274,0.0,0.0,72,-99.99,,,-99.99,WSDL version 420,2013-03-08 05:18:00,
2013-03-07 23:23:00,47.6,39.0,30.21,WNW,284,0.0,0.0,72,0.00,,,0.00,WSDL version 420,2013-03-08 05:23:00,
2013-03-07 23:28:00,47.5,38.9,30.21,West,270,0.0,0.0,72,0.00,,,0.00,WSDL version 420,2013-03-08 05:28:00,
2013-03-07 23:33:00,47.3,39.1,30.21,West,270,0.0,0.0,73,0.00,,,0.00,WSDL version 420,2013-03-08 05:33:00,
2013-03-07 23:37:00,47.3,39.1,30.21,West,270,0.0,0.0,73,0.00,,,0.00,WSDL version 420,2013-03-08 05:37:00,
2013-03-07 23:42:00,47.1,38.9,30.21,WNW,293,0.0,0.0,73,0.00,,,0.00,WSDL version 420,2013-03-08 05:42:00,
2013-03-07 23:47:00,46.9,38.5,30.21,WNW,293,0.0,0.0,72,0.00,,,0.00,WSDL version 420,2013-03-08 05:47:00,
2013-03-07 23:52:00,46.7,38.2,30.21,WNW,293,0.0,0.0,72,0.00,,,0.00,WSDL version 420,2013-03-08 05:52:00,
2013-03-07 23:57:00,46.5,38.2,30.21,West,273,0.0,0.0,73,-99.99,,,-99.99,WSDL version 420,2013-03-08 05:57:00,